Regional Weather Roundup
Issued by NWS

Home | Current Version | Previous Version | Graphics & Text | Print | Product List | Glossary On
Versions: 1 2 3 4 5 6 7 8 9 10 11 12 13 14 15 16 17 18 19 20 21 22 23 24 25 26 27 28 29 30 31 32 33 34 35 36 37 38 39 40 41 42 43 44 45 46 47 48 49 50
000
ASUS45 KSLC 040210
RWRUT
UTAH REGIONAL WEATHER ROUNDUP
NATIONAL WEATHER SERVICE SALT LAKE CITY UT
800 PM MDT MON AUG 03 2015

UTZ001>011-023>025-040300-

NORTHERN UTAH

CITY           SKY/WX    TMP DP  RH WIND       PRES   REMARKS
BRIGHAM CITY   CLOUDY    66  58  74 CALM      30.10R
HILL AFB       MOCLDY    64  63  98 S7        30.10S
LOGAN          CLOUDY    63  58  83 CALM      30.10R
OGDEN          MOCLDY    66  60  81 S8        30.08S
PROVO AIRPORT  NOT AVBL
SALT LAKE CITY MOCLDY    69  57  65 SE6       30.07F
VERNAL         PTCLDY    69  48  47 SW10      30.05R
WENDOVER       CLOUDY    75  50  41 SE3       30.05F
HEBER CITY     MOCLDY    64  52  63 N7        30.15F
WEST JORDAN    CLEAR     70  54  56 CALM      30.10F

$$

UTZ012>022-026-027-040300-

SOUTHERN/CENTRAL UTAH

CITY           SKY/WX    TMP DP  RH WIND       PRES   REMARKS
BLANDING       PTCLDY    74  45  34 N5        30.19R
BRYCE CANYON   PTCLDY    74  34  23 SW12      30.24R
CEDAR CITY     CLEAR     84  34  16 SW13G23   30.06R
DELTA          CLOUDY    73  53  50 NE15G21   30.07R
HANKSVILLE     MOCLDY    79  64  61 N7        30.00R
MILFORD        NOT AVBL
MOAB/CYNLANDS  LGT RAIN  78  48  34 SW8       29.98S
PRICE          PTCLDY    70  47  43 N10       30.11F
ST GEORGE      MOCLDY    99  39  12 W12       29.85R HX  94
KANAB          CLEAR     88  39  18 SW12      30.06S

$$

REGIONAL REPORTS     COLORADO/ARIZONA

CITY           SKY/WX    TMP DP  RH WIND       PRES   REMARKS
CRAIG, CO      CLOUDY    65  56  72 E8        30.14R
GRAND JUNCTION MOCLDY    80  46  30 SW7       30.02R
RIFLE          MOCLDY    72  54  53 E10       30.08R
MONTROSE       CLOUDY    76  51  41 SE5       30.14R
CORTEZ         MOCLDY    75  44  33 NE14      30.15R
PAGE, AZ       PTCLDY    94  37  13 W5        29.94R
GRAND CANYON   PTCLDY    80  38  22 W9        30.19R
KINGMAN        PTCLDY    93  32  11 S13       29.94R
FLAGSTAFF      CLEAR     76  41  28 SW8       30.24R

$$

REGIONAL REPORTS    NEVADA/IDAHO/WYOMING

CITY           SKY/WX    TMP DP  RH WIND       PRES   REMARKS
LAS VEGAS, NV  PTCLDY   102  26   7 SW13G22   29.74S HX  95
ELY            MOCLDY    73  44  35 N17       30.13R
ELKO           MOCLDY    81  38  21 S16G25    29.98S
POCATELLO, ID  LGT RAIN  66  60  81 S7        30.05R
BURLEY         CLOUDY    74  55  51 SE5       29.97S
EVANSTON, WY   CLOUDY    56  51  84 SW13      30.23R
ROCK SPRINGS   CLOUDY    56  54  93 SW20      30.14R
KEMMERER       LGT RAIN  52  50  93 W22G29    30.18S

$$



USA.gov is the U.S. government's official web portal to all federal, state and local government web resources and services.